Regional Weather Roundup
Issued by NWS Grand Forks, ND

Home | Current Version | Previous Version | Graphics & Text | Print | Product List | Glossary On
Versions: 1 2 3 4 5 6 7 8 9 10 11 12 13 14 15 16 17 18 19 20 21 22 23 24 25 26 27 28 29 30 31 32 33 34 35 36 37 38 39 40 41 42 43 44 45 46 47 48 49 50
000
ASUS43 KFGF 200510
RWRFGF
PRAIRIE TO PINES  WEATHER ROUNDUP
NATIONAL WEATHER SERVICE EASTERN NORTH DAKOTA/GRAND FORKS ND
1100 PM CST MON FEB 19 2018

 **SATELLITE DATA USED TO AUGMENT SKY COVER AT AUTOMATED STATIONS**
 *****  WEATHER ACROSS EASTERN NORTH DAKOTA  *****

CITY           SKY/WX    TMP DP  RH WIND       PRES   REMARKS
GRAND FORKS    LGT SNOW   5  -2  72 N14       30.19R WCI -12
GRAND FRKS AFB CLOUDY     3  -2  78 N13       30.19R WCI -14
GRAND FRKS NWS   N/A      3  -1  82 VRB10     30.16R WCI -12
DEVILS LAKE    LGT SNOW   2  -2  83 N10       30.15F FOG     WCI -14
FARGO          LGT SNOW   6   2  83 N21       30.13R FOG     WCI -14
WAHPETON ARPT  CLOUDY     9   3  78 N17G24    30.09R WCI -10
$$

 ***** WEATHER ACROSS CENTRAL AND WESTERN NORTH DAKOTA  *****

CITY           SKY/WX    TMP DP  RH WIND       PRES   REMARKS
BISMARCK       LGT SNOW   4  -2  76 N10       30.12F WCI -11
MINOT          CLOUDY     5   0  79 CALM      30.17R
JAMESTOWN      LGT SNOW   3  -1  83 N17       30.10S FOG     WCI -17
MINOT AFB      CLOUDY     4  -1  79 W3        30.16R
GARRISON         N/A      2  -1  88 NW9       30.10F WCI -13
WILLISTON      LGT SNOW   3  -1  83 SW3       30.15S FOG
DICKINSON      LGT SNOW   2  -3  80 N3        30.03F
HETTINGER      CLOUDY     0  -5  79 N7        30.05S WCI -13
$$

 *****  OTHER AIRPORT OBSERVATIONS IN OUR AREA  *****

CITY           SKY/WX    TMP DP  RH WIND       PRES   REMARKS
WALHALLA       FAIR       5  -6  61 N6        30.23S WCI  -6
GRAFTON AIRPOR FAIR       5  -4  66 N13       30.23S WCI -12
VALLEY CITY AR LGT SNOW   1   0  92 N14       30.13F WCI -17
CANDO          CLOUDY     3   0  85 CALM      30.17F
CAVALIER APRT    N/A      5  -4  66 N7        30.22S WCI  -7
GWINNER        FOG        3   0  85 N22G28    30.07F VSB 1/2 WCI -19
SHEYENNE NWR     N/A      5   1  81 N13       29.95S WCI -12
ROLLA          CLOUDY     1  -6  71 CALM      30.11F
 ***** THE ABOVE OBSERVATIONS ARE NON NWS ARE NOT QUALITY
       CONTROLLED AND MAY MIS-REPORT RAIN FOR SNOW...
$$

  *****  WEATHER ACROSS NORTHERN MINNESOTA  *****

CITY           SKY/WX    TMP DP  RH WIND       PRES   REMARKS
FLAG ISLAND    CLOUDY     5  -8  56 NE6       30.18S WCI  -6
WARROAD        FAIR       7  -4  61 NE10      30.17F WCI  -8
ROSEAU         NOT AVBL
HALLOCK        FAIR       5  -8  56 N12       30.21S WCI -11
THF RVR FALLS  NOT AVBL
BAUDETTE       CLOUDY     6  -4  63 NE9       30.12F WCI  -8
WASKISH        CLOUDY     9   0  66 NE9       30.07F WCI  -5
CROOKSTON      FAIR       7   0  72 N13       30.18R HAZE    WCI  -9
STEPHEN NDAWN    N/A      3  -2  78 N12         N/A  WCI -13
GREENBUSH NDAW   N/A      3  -2  78 N12         N/A  WCI -13
$$
  *****  WEATHER ACROSS CENTRAL AND WEST MINNESOTA  *****

CITY           SKY/WX    TMP DP  RH WIND       PRES   REMARKS
FOSSTON        LGT SNOW   3  -2  78 N14       30.09R WCI -15
BEMIDJI        LGT SNOW   7   2  80 N10       30.02F WCI  -7
PARK RAPIDS    FLURRIES   9   3  77 N13G18    29.97F WCI  -7
ELBOW LAKE     FLURRIES  11   8  85 N10       30.02R WCI  -2
WADENA         FLURRIES   9   7  92 NE14      29.94F WCI  -8
DETROIT LAKES  CLOUDY    10   5  79 N9        30.02R WCI  -2
MOORHEAD       LGT SNOW   7   1  78 N20       30.12R WCI -13
FERGUS FALLS   CLOUDY    10   5  79 N8        30.06R WCI  -1
MORRIS MN      LGT SNOW  12   9  85 N12       29.99R WCI  -2
STAPLES        FLURRIES  10   7  85 NE8G16    29.94F WCI  -1
$$
  *****  WEATHER ELSEWHERE ACROSS MINNESOTA  *****

CITY           SKY/WX    TMP DP  RH WIND       PRES   REMARKS
DULUTH         LGT SNOW  14   9  80 NE20      29.97S WCI  -3
INTRNTL FALLS  CLOUDY     7  -2  66 NE9       30.12F WCI  -7
ELY            CLOUDY     5   1  85 NE10      30.05F WCI -10
CLOQUET        LGT SNOW  14   9  79 NE13G20   29.96F WCI   0
WHEATON        LGT SNOW   9   3  78 NW17G23   30.08R WCI -10
BRAINERD       CLOUDY    12   4  70 NE14      29.96F WCI  -3
HIBBING        CLOUDY     7   2  80 NE9       30.03F WCI  -7
ALEXANDRIA     CLOUDY    12   7  80 NE12      29.93F HAZE    WCI  -2
SAINT CLOUD    CLOUDY    14  11  87 NE8       29.93F WCI   3
MINNEAPOLIS    FRZ DRZL  20  19  96 NE12      29.91R WCI   8
$$

  *****  WEATHER ACROSS SOUTH DAKOTA  *****

CITY           SKY/WX    TMP DP  RH WIND       PRES   REMARKS
SIOUX FALLS    LGT SNOW  15  11  83 N12       29.91R FOG     WCI   2
BROOKINGS      LGT SNOW  10   6  84 N13       29.94R FOG     WCI  -5
WATERTOWN      LGT SNOW   5   1  83 N17G26    29.92F FOG     WCI -14
HURON          LGT SNOW   6   2  83 N16       30.01R FOG     WCI -12
SISSETON         N/A      5   2  87 N20       30.04R WCI -15
ABERDEEN       FOG        4   0  83 N18       30.06F VSB 3/4 WCI -16
MITCHELL       CLOUDY    10   6  84 N18       29.99F WCI  -8
PIERRE         LGT SNOW   4   1  88 N12       30.06R FOG     WCI -12
MOBRIDGE       CLOUDY     5  -2  72 N13       30.03S WCI -12
RAPID CITY     LGT SNOW  -1  -6  79 NW14      30.00R WCI -20
$$

  *****  SOME WEATHER IN NEARBY STATES *****

CITY           SKY/WX    TMP DP  RH WIND       PRES   REMARKS
GLASGOW MT     CLOUDY    -5  -9  83 CALM      30.12S
GREAT FALLS MT MOCLDY   -12 -17  78 SW9       29.98F WCI -30
CHEYENNE WY    MIX PCPN  -4  -9  79 N13       29.64F WCI -23
SCOTTSBLUFF NE CLOUDY     1  -5  75 N6        29.87F HAZE    WCI -10
OMAHA NE       HAIL      23  20  88 NW12      29.85R WCI  12
DES MOINES IA  FLURRIES  28  26  92 N8        29.80F WCI  20
DAVENPORT IA   LGT RAIN  41  39  93 W8        29.81F FOG
CHICAGO IL     LGT RAIN  59  56  89 S16       29.81S
EAU CLAIRE WI  CLOUDY    22  19  89 NE10      29.87R WCI  11
LA CROSSE WI   CLOUDY    32  31  96 N3        29.81S FOG
$$

  *****  SOME NATIONAL WEATHER *****

CITY           SKY/WX    TMP DP  RH WIND       PRES   REMARKS
LA GUARDIA NY  DRZL/FOG  47  46  97 SE5       30.30F VSB 1/2
RALEIGH NC     FOG       50  50 100 NW3       30.44S VSB 1/8
ATLANTA GA     MOCLDY    61  60  97 E10       30.33S
NEW ORLEANS LA FAIR      72  69  90 SE10      30.13S
OKLAHOMA CITY  CLOUDY    46  40  79 N7        29.72S
ALBUQUERQUE NM CLOUDY    51  27  39 SW17G28   29.64R
SALT LAKE CITY MOCLDY    26  16  65 SW3       29.77R
LOS ANGELES CA FAIR      50  18  28 N9        30.00R
BOISE ID       FAIR      17   4  56 NW14      29.96R WCI   3
SEATTLE WA     FAIR      32  13  45 CALM      30.21R
$$

*** WEATHER ACROSS MANITOBA...SASKATCHEWAN AND ONTARIO ***
                ***ONTARIO***

CITY           SKY/WX    TMP DP  RH WIND       PRES   REMARKS
GERALDTON      CLOUDY    -8 -15  71 E7        30.29S WCI -22
THUNDER BAY    LGT SNOW   5   1  85 N6        30.19F WCI  -6
SIOUX LOOKOUT  CLOUDY    -2 -13  60 VRB2      30.21F
TORONTO        LGT RAIN  39  37  93 E3        30.01S
BIG TROUT LK   CLEAR    -24 -35  57 SE3       30.36R
PICKLE LAKE    NOT AVBL
DRYDEN         MOCLDY     1  -9  60 NE10      30.17F WCI -14
KENORA         CLOUDY     1 -11  55 NE6       30.17S WCI -10
$$
                *** MANITOBA***

CITY           SKY/WX    TMP DP  RH WIND       PRES   REMARKS
BRANDON        CLOUDY     1  -4  78 SW6       30.18F WCI -10
DAUPHIN        CLOUDY     1  -8  66 SW5       30.18F WCI  -8
ISLAND LAKE    NOT AVBL
PILOT MOUND      N/A      3  -4  72 SE1         N/A
THE PAS        CLEAR     -4 -15  59 S9        30.06S WCI -20
THOMPSON       PTCLDY    -9 -17  70 VRB2      30.10S
WINNIPEG       CLOUDY     1  -8  66 N5        30.25S WCI  -8
LYNN LAKE      CLOUDY     0  -4  85 S6        29.89S WCI -12
CHURCHILL      CLOUDY   -22 -31  63 SE3       30.32R
GILLAM         CLEAR    -13 -24  58 S8        30.23R WCI -30
$$
                ***SASKATCHEWAN***

CITY           SKY/WX    TMP DP  RH WIND       PRES   REMARKS
ESTEVAN        CLOUDY    -4  -9  77 SW5       30.12F WCI -15
KINDERSLEY     MOCLDY    -6 -11  77 SW12G17   29.99F WCI -24
LLOYDMINSTER   MOCLDY     7   0  72 W14       29.88S WCI -10
PRINCE ALBERT  CLEAR     -4 -11  71 SW8       30.00F WCI -19
REGINA         CLEAR    -11 -15  84 SW8       30.08F WCI -28
YORKTON        CLEAR     -4  -9  77 SW10      30.09F WCI -21
N. BATTLEFORD  CLOUDY     1  -8  66 SW10      29.97S WCI -14
LA RONGE       FLURRIES   3  -6  66 S9        29.89F WCI -11
SASKATOON      PTCLDY    -4 -11  71 SW15      30.03F WCI -25
SWIFT CURRENT  CLEAR     -9 -15  77 SW14      29.99F WCI -31
$$
NOTE: THESE ARE AUTOMATED STATIONS WITH LIMITED QUALITY CONTROL
      "FAIR" INDICATES FEW OR NO CLOUDS BELOW 12,000 FEET WITH NO
      SIGNIFICANT WEATHER AND/OR OBSTRUCTIONS TO VISIBILITY.
      SKY/WX - SKY CONDITION AND SIGNIFICANT WEATHER.
      TMP - AIR TEMPERATURE.    DP   - DEWPOINT TEMPERATURE.
      RH  - RELATIVE HUMIDITY.  PRES - PRESSURE.
      HX  - HEAT INDEX.         WCI  - WIND CHILL INDEX.
$




USA.gov is the U.S. government's official web portal to all federal, state and local government web resources and services.